| time (UTC) | temp F | wind direction | speed knots | gust knots | rain 1hr in | rain 24hr in | rain mn in | humidity % | barometer mb |
| 20260508164535 | 60 | 299 | 0.0 | 1.7 | 0.00 | 0.00 | 0.00 | 54 | 1013.2 |
| 20260508163012 | 60 | 300 | 0.9 | 1.7 | 0.00 | 0.00 | 0.00 | 55 | 1013.2 |
| 20260508161520 | 59 | 215 | 1.7 | 2.6 | 0.00 | 0.00 | 0.00 | 53 | 1013.3 |
| 20260508160005 | 59 | 261 | 1.7 | 2.6 | 0.00 | 0.00 | 0.00 | 56 | 1013.6 |
| 20260508154508 | 57 | 263 | 0.9 | 1.7 | 0.00 | 0.00 | 0.00 | 62 | 1013.6 |
| 20260508153014 | 55 | 242 | 0.9 | 1.7 | 0.00 | 0.00 | 0.00 | 61 | 1013.7 |
| 20260508151518 | 54 | 250 | 0.9 | 1.7 | 0.00 | 0.00 | 0.00 | 60 | 1013.7 |
| 20260508150034 | 53 | 207 | 0.9 | 1.7 | 0.00 | 0.00 | 0.00 | 62 | 1013.8 |
| 20260508144507 | 53 | 261 | 0.9 | 2.6 | 0.00 | 0.00 | 0.00 | 64 | 1013.9 |
| 20260508143007 | 52 | 258 | 0.9 | 1.7 | 0.00 | 0.00 | 0.00 | 63 | 1014.0 |
| 20260508141514 | 52 | 261 | 0.9 | 0.9 | 0.00 | 0.00 | 0.00 | 64 | 1014.1 |
| 20260508140022 | 52 | 258 | 0.0 | 1.7 | 0.00 | 0.00 | 0.00 | 65 | 1013.9 |
| 20260508134525 | 52 | 258 | 0.9 | 1.7 | 0.00 | 0.00 | 0.00 | 63 | 1014.1 |
| 20260508133024 | 51 | 265 | 0.9 | 1.7 | 0.00 | 0.00 | 0.00 | 65 | 1013.9 |
| 20260508131518 | 51 | 254 | 0.9 | 1.7 | 0.00 | 0.00 | 0.00 | 66 | 1013.9 |
| 20260508130021 | 51 | 277 | 0.9 | 1.7 | 0.00 | 0.00 | 0.00 | 65 | 1013.8 |
| 20260508124522 | 50 | 252 | 0.9 | 2.6 | 0.00 | 0.00 | 0.00 | 66 | 1013.8 |
| 20260508123028 | 49 | 246 | 0.0 | 1.7 | 0.00 | 0.00 | 0.00 | 68 | 1013.7 |
| 20260508121514 | 49 | 242 | 0.9 | 1.7 | 0.00 | 0.00 | 0.00 | 67 | 1013.7 |
| 20260508120017 | 48 | 229 | 0.9 | 1.7 | 0.00 | 0.00 | 0.00 | 68 | 1013.7 |
| 20260508114523 | 48 | 247 | 0.9 | 0.9 | 0.00 | 0.00 | 0.00 | 70 | 1013.6 |
| 20260508113024 | 46 | 294 | 0.0 | 1.7 | 0.00 | 0.00 | 0.00 | 73 | 1013.5 |
| 20260508111508 | 45 | 346 | 0.0 | 1.7 | 0.00 | 0.00 | 0.00 | 74 | 1013.5 |
| 20260508110014 | 44 | 346 | 0.0 | 0.0 | 0.00 | 0.00 | 0.00 | 75 | 1013.3 |
| 20260508104533 | 44 | 346 | 0.0 | 0.0 | 0.00 | 0.00 | 0.00 | 76 | 1013.2 |
| 20260508103004 | 43 | 346 | 0.0 | 0.0 | 0.00 | 0.00 | 0.00 | 78 | 1013.1 |
| 20260508101506 | 42 | 346 | 0.0 | 0.9 | 0.00 | 0.00 | 0.00 | 80 | 1012.9 |
| 20260508100014 | 42 | 346 | 0.0 | 0.0 | 0.00 | 0.00 | 0.00 | 78 | 1012.8 |
| 20260508094502 | 43 | 346 | 0.0 | 0.0 | 0.00 | 0.00 | 0.00 | 78 | 1012.9 |
| 20260508093004 | 43 | 346 | 0.0 | 0.0 | 0.00 | 0.00 | 0.00 | 76 | 1012.9 |
| 20260508091507 | 43 | 346 | 0.0 | 0.0 | 0.00 | 0.00 | 0.00 | 77 | 1013.0 |
| 20260508090015 | 43 | 346 | 0.0 | 0.0 | 0.00 | 0.00 | 0.00 | 78 | 1013.0 |
| 20260508084516 | 44 | 346 | 0.0 | 0.0 | 0.00 | 0.00 | 0.00 | 79 | 1013.0 |
| 20260508083004 | 44 | 346 | 0.0 | 0.0 | 0.00 | 0.00 | 0.00 | 78 | 1013.0 |
| 20260508081504 | 45 | 346 | 0.0 | 0.0 | 0.00 | 0.00 | 0.00 | 77 | 1013.0 |
| 20260508080009 | 45 | 346 | 0.0 | 0.0 | 0.00 | 0.00 | 0.00 | 76 | 1013.0 |
| 20260508074516 | 46 | 346 | 0.0 | 0.0 | 0.00 | 0.00 | 0.00 | 77 | 1013.1 |
| 20260508073018 | 47 | 346 | 0.0 | 0.0 | 0.00 | 0.00 | 0.00 | 76 | 1013.1 |
| 20260508071507 | 47 | 346 | 0.0 | 0.0 | 0.00 | 0.00 | 0.00 | 77 | 1013.2 |
| 20260508070018 | 47 | 346 | 0.0 | 0.0 | 0.00 | 0.00 | 0.00 | 78 | 1013.5 |
| 20260508064510 | 48 | 346 | 0.0 | 0.0 | 0.00 | 0.00 | 0.00 | 76 | 1013.6 |
| 20260508063018 | 48 | 346 | 0.0 | 1.7 | 0.00 | 0.00 | 0.00 | 74 | 1013.6 |
| 20260508061524 | 48 | 325 | 0.0 | 0.9 | 0.00 | 0.00 | 0.00 | 74 | 1014.0 |
| 20260508060007 | 48 | 325 | 0.0 | 1.7 | 0.00 | 0.00 | 0.00 | 71 | 1014.2 |
| 20260508054511 | 48 | 307 | 0.0 | 0.0 | 0.00 | 0.00 | 0.00 | 72 | 1014.4 |
| 20260508053017 | 48 | 307 | 0.0 | 0.0 | 0.00 | 0.00 | 0.00 | 73 | 1013.8 |
| 20260508051520 | 47 | 307 | 0.0 | 0.0 | 0.00 | 0.00 | 0.00 | 74 | 1013.7 |
| 20260508050024 | 47 | 307 | 0.0 | 0.0 | 0.00 | 0.00 | 0.00 | 72 | 1013.6 |
| 20260508044510 | 47 | 307 | 0.0 | 0.0 | 0.00 | 0.00 | 0.00 | 74 | 1013.6 |
| 20260508043014 | 47 | 307 | 0.0 | 0.0 | 0.00 | 0.00 | 0.00 | 74 | 1013.8 |
| 20260508041520 | 48 | 307 | 0.0 | 0.0 | 0.00 | 0.00 | 0.00 | 75 | 1013.9 |
| 20260508040026 | 47 | 307 | 0.0 | 0.0 | 0.00 | 0.00 | 0.00 | 73 | 1013.8 |
| 20260508034512 | 48 | 307 | 0.0 | 0.0 | 0.00 | 0.00 | 0.00 | 74 | 1013.7 |
| 20260508033012 | 47 | 307 | 0.0 | 0.0 | 0.00 | 0.00 | 0.00 | 72 | 1013.7 |
| 20260508031521 | 47 | 307 | 0.0 | 0.0 | 0.00 | 0.00 | 0.00 | 75 | 1013.8 |
| 20260508030033 | 47 | 307 | 0.0 | 0.0 | 0.00 | 0.00 | 0.00 | 72 | 1013.8 |
| 20260508024532 | 47 | 307 | 0.0 | 0.0 | 0.00 | 0.00 | 0.00 | 73 | 1013.8 |
| 20260508023014 | 47 | 307 | 0.0 | 0.0 | 0.00 | 0.00 | 0.00 | 71 | 1013.7 |
| 20260508021513 | 48 | 307 | 0.0 | 0.0 | 0.00 | 0.00 | 0.00 | 68 | 1013.6 |
| 20260508020018 | 48 | 307 | 0.0 | 0.0 | 0.00 | 0.00 | 0.00 | 67 | 1013.6 |
| 20260508014524 | 49 | 307 | 0.0 | 0.0 | 0.00 | 0.00 | 0.00 | 67 | 1013.7 |
| 20260508013010 | 49 | 307 | 0.0 | 0.0 | 0.00 | 0.00 | 0.00 | 66 | 1013.7 |
| 20260508011512 | 50 | 307 | 0.0 | 0.0 | 0.00 | 0.00 | 0.00 | 63 | 1013.6 |
| 20260508010024 | 51 | 307 | 0.0 | 0.0 | 0.00 | 0.00 | 0.00 | 62 | 1013.5 |
| 20260508004524 | 52 | 307 | 0.0 | 0.0 | 0.00 | 0.00 | 0.00 | 61 | 1013.5 |
| 20260508003005 | 53 | 307 | 0.0 | 0.0 | 0.00 | 0.00 | 0.00 | 53 | 1013.2 |
| 20260508001510 | 53 | 307 | 0.0 | 0.0 | 0.00 | 0.00 | 0.00 | 50 | 1013.1 |
| 20260508000023 | 54 | 307 | 0.0 | 0.0 | 0.00 | 0.00 | 0.00 | 51 | 1013.1 |
| 20260507234524 | 55 | 307 | 0.0 | 0.9 | 0.00 | 0.00 | 0.00 | 51 | 1013.1 |
| 20260507233026 | 56 | 304 | 0.0 | 1.7 | 0.00 | 0.00 | 0.00 | 49 | 1013.0 |
| 20260507231516 | 56 | 303 | 0.0 | 1.7 | 0.00 | 0.00 | 0.00 | 44 | 1013.0 |
| 20260507230014 | 57 | 303 | 0.9 | 1.7 | 0.00 | 0.00 | 0.00 | 44 | 1013.0 |
| 20260507224520 | 57 | 313 | 0.0 | 1.7 | 0.00 | 0.00 | 0.00 | 44 | 1013.2 |
| 20260507223025 | 57 | 113 | 0.0 | 2.6 | 0.00 | 0.00 | 0.00 | 44 | 1013.2 |
| 20260507221508 | 56 | 298 | 0.0 | 3.5 | 0.00 | 0.00 | 0.00 | 44 | 1013.2 |
| 20260507220013 | 56 | 289 | 0.9 | 2.6 | 0.00 | 0.00 | 0.00 | 46 | 1013.3 |
| 20260507214523 | 56 | 309 | 0.0 | 3.5 | 0.00 | 0.00 | 0.00 | 45 | 1013.3 |
| 20260507213030 | 58 | 244 | 0.9 | 6.1 | 0.00 | 0.00 | 0.00 | 43 | 1013.2 |
| 20260507211527 | 57 | 294 | 0.9 | 2.6 | 0.00 | 0.00 | 0.00 | 45 | 1013.1 |
| 20260507210012 | 59 | 95 | 0.9 | 6.1 | 0.00 | 0.00 | 0.00 | 42 | 1013.1 |
| 20260507204518 | 60 | 103 | 0.9 | 4.3 | 0.00 | 0.00 | 0.00 | 42 | 1013.0 |
| 20260507203023 | 58 | 290 | 1.7 | 5.2 | 0.00 | 0.00 | 0.00 | 42 | 1013.0 |
| 20260507201531 | 60 | 314 | 1.7 | 4.3 | 0.00 | 0.00 | 0.00 | 43 | 1012.9 |
| 20260507200029 | 60 | 301 | 1.7 | 3.5 | 0.00 | 0.00 | 0.00 | 45 | 1013.0 |
| 20260507194513 | 59 | 316 | 0.9 | 3.5 | 0.00 | 0.00 | 0.00 | 48 | 1013.0 |
| 20260507193028 | 58 | 312 | 1.7 | 4.3 | 0.00 | 0.00 | 0.00 | 42 | 1013.3 |
| 20260507191526 | 58 | 298 | 0.9 | 3.5 | 0.00 | 0.00 | 0.00 | 45 | 1013.2 |
| 20260507190029 | 58 | 295 | 1.7 | 3.5 | 0.00 | 0.00 | 0.00 | 48 | 1013.3 |
| 20260507184515 | 57 | 301 | 0.9 | 3.5 | 0.00 | 0.00 | 0.00 | 50 | 1013.3 |
| 20260507183032 | 57 | 301 | 0.9 | 3.5 | 0.00 | 0.00 | 0.00 | 51 | 1013.4 |
| 20260507181526 | 59 | 322 | 1.7 | 3.5 | 0.00 | 0.00 | 0.00 | 50 | 1013.3 |
| 20260507180025 | 58 | 240 | 0.9 | 3.5 | 0.00 | 0.00 | 0.00 | 51 | 1013.5 |
| 20260507174533 | 57 | 306 | 0.9 | 2.6 | 0.00 | 0.00 | 0.00 | 52 | 1013.6 |
| 20260507173016 | 57 | 315 | 0.9 | 4.3 | 0.00 | 0.00 | 0.00 | 48 | 1013.7 |
| 20260507171529 | 57 | 300 | 0.9 | 4.3 | 0.00 | 0.00 | 0.00 | 51 | 1013.9 |
| 20260507170032 | 56 | 269 | 0.9 | 3.5 | 0.00 | 0.00 | 0.00 | 54 | 1014.1 |